Location: Goll?ig?dem
(16.6773°N, 80.7332°E)
Time: 21:33:20
(UTC+00:00)

ARIANE 5 R/B - Pass Details

Date: 19 May 2025
Orbit: 544 x 17396 km, 6.8° (Epoch: 18 June)

Event Time Altitude Azimuth Distance (km) Brightness Sun altitude
Exits shadow 23:28:42 10° 239° (WSW) 3,101 4.4 -8.8°
Reaches altitude 10° 23:28:43 10° 239° (WSW) 3,092 4.4 -8.8°
Maximum altitude 23:32:14 15° 205° (SSW) 2,041 3.8 -8.1°
Drops below altitude 10° 23:34:38 10° 167° (SSE) 1,985 4.1 -7.5°
Sets 23:37:17 0° 138° (SE) 2,683 5.1 -6.9°
